This is the latest recevied weather packets stored in our database for station/object K1AWR. If no packets are shown the sender has not sent any weather packets the latest 10 day(s).
| Time | Temp. | Humidity | Pressure | Rain* | Wind** | Luminosity | Snow |
|---|---|---|---|---|---|---|---|
| 1777868046 | 3.33° C | 74% | 1012 hPa | 0 mm | - | 0 W/m² | - |
| 1777867742 | 3.33° C | 73% | 1012 hPa | 0 mm | - | 0 W/m² | - |
| 1777867440 | 3.33° C | 73% | 1012 hPa | 0 mm | - | 0 W/m² | - |
| 1777867136 | 3.33° C | 72% | 1012 hPa | 0 mm | - | 0 W/m² | - |
| 1777866834 | 3.89° C | 74% | 1012 hPa | 0 mm | - | 0 W/m² | - |
| 1777866530 | 3.89° C | 73% | 1011.8 hPa | 0 mm | - | 0 W/m² | - |
| 1777866228 | 3.89° C | 74% | 1012 hPa | 0 mm | - | 0 W/m² | - |
| 1777865924 | 3.89° C | 74% | 1011.8 hPa | 0 mm | - | 0 W/m² | - |
| 1777865623 | 3.89° C | 73% | 1011.8 hPa | 0 mm | - | 0 W/m² | - |
| 1777865319 | 4.44° C | 74% | 1011.8 hPa | 0 mm | - | 0 W/m² | - |
| 1777865016 | 4.44° C | 72% | 1012 hPa | 0 mm | - | 0 W/m² | - |
| 1777864713 | 4.44° C | 71% | 1011.8 hPa | 0 mm | - | 0 W/m² | - |
| 1777864410 | 4.44° C | 72% | 1011.7 hPa | 0 mm | - | 0 W/m² | - |
| 1777864106 | 4.44° C | 70% | 1011.7 hPa | 0 mm | - | 0 W/m² | - |
| 1777863804 | 4.44° C | 70% | 1011.8 hPa | 0 mm | - | 0 W/m² | - |
| 1777863500 | 4.44° C | 72% | 1011.9 hPa | 0 mm | - | 0 W/m² | - |
| 1777863197 | 5° C | 70% | 1011.9 hPa | 0 mm | - | 0 W/m² | - |
| 1777862893 | 5° C | 72% | 1011.7 hPa | 0 mm | - | 0 W/m² | - |
| 1777862590 | 5° C | 69% | 1011.8 hPa | 0 mm | - | 0 W/m² | - |
| 1777862287 | 5° C | 73% | 1011.9 hPa | 0 mm | - | 0 W/m² | - |
| 1777861983 | 5° C | 71% | 1011.8 hPa | 0 mm | - | 0 W/m² | - |
| 1777861679 | 5° C | 71% | 1011.8 hPa | 0 mm | - | 0 W/m² | - |
| 1777861375 | 5° C | 67% | 1011.7 hPa | 0 mm | - | 0 W/m² | - |
| 1777861072 | 5° C | 71% | 1011.7 hPa | 0 mm | - | 0 W/m² | - |
| 1777860770 | 5° C | 70% | 1011.5 hPa | 0 mm | - | 0 W/m² | - |
* Rain latest hour (hover to see other rain measurements)
** Current wind speed in m/s (hover to see current wind gust speed)